EW7548 Weather Reports


Display with metric or nautical units.
time (UTC)temp
F
wind
direction
speed
MPH
gust
MPH
rain 1hr
in
rain 24hr
in
rain mn
in
humidity
%
barometer
mb
20260906173011 78 118 7.0 13.0 0.00 0.00 0.00 74 1017.8
20260906171508 77 131 6.0 16.0 0.00 0.00 0.00 76 1017.8
20260906170004 77 129 8.0 16.0 0.00 0.00 0.00 76 1017.9
20260906164607 76 135 8.0 14.0 0.00 0.00 0.00 78 1017.9
20260906163106 74 140 8.0 13.0 0.00 0.00 0.00 80 1018.0
20260906161552 74 107 9.0 13.0 0.00 0.00 0.00 81 1018.0
20260906160052 73 140 9.0 13.0 0.00 0.00 0.00 82 1017.9
20260906154557 73 138 10.0 15.0 0.00 0.00 0.00 82 1018.2
20260906153046 73 136 8.0 14.0 0.00 0.00 0.00 84 1018.0
20260906151544 72 81 4.0 14.0 0.00 0.00 0.00 86 1018.0
20260906150040 72 143 5.0 13.0 0.00 0.00 0.00 89 1018.2
20260906144537 70 162 8.0 13.0 0.00 0.00 0.00 93 1018.1
20260906143036 69 141 7.0 12.0 0.00 0.00 0.00 95 1017.9
20260906141531 68 126 9.0 13.0 0.00 0.00 0.00 95 1017.8
20260906140032 68 137 7.0 11.0 0.00 0.00 0.00 95 1017.8
20260906134526 67 137 7.0 11.0 0.00 0.00 0.00 96 1017.8
20260906133029 67 168 7.0 11.0 0.00 0.00 0.00 96 1017.8
20260906131533 67 148 7.0 10.0 0.00 0.00 0.00 95 1017.6
20260906130018 67 134 7.0 10.0 0.00 0.00 0.00 95 1017.7
20260906124516 67 155 6.0 9.0 0.00 0.00 0.00 95 1017.6
20260906123014 67 136 3.0 7.0 0.00 0.00 0.00 95 1017.7
20260906121512 67 132 3.0 7.0 0.00 0.00 0.00 95 1017.5
20260906120009 67 130 4.0 10.0 0.00 0.00 0.00 95 1017.3
20260906114507 67 169 6.0 10.0 0.00 0.00 0.00 95 1016.9
20260906113006 67 142 6.0 10.0 0.00 0.00 0.00 95 1017.1
20260906111505 66 134 6.0 9.0 0.00 0.00 0.00 95 1017.2
20260906110003 66 123 5.0 10.0 0.00 0.00 0.00 95 1016.8
20260906104600 66 134 2.0 8.0 0.00 0.00 0.00 95 1016.6
20260906103059 66 110 2.0 7.0 0.00 0.00 0.00 95 1016.4
20260906101557 66 126 0.0 3.0 0.00 0.00 0.00 94 1016.4
20260906100056 66 136 2.0 5.0 0.00 0.00 0.00 94 1016.1
20260906094555 66 132 0.0 2.0 0.00 0.00 0.00 94 1016.1
20260906093055 67 122 0.0 3.0 0.00 0.00 0.00 94 1016.1
20260906091553 67 130 1.0 9.0 0.00 0.00 0.00 94 1015.8
20260906090056 67 124 3.0 9.0 0.00 0.00 0.00 94 1015.5
20260906084554 66 119 0.0 2.0 0.00 0.00 0.00 94 1015.5
20260906083053 66 128 0.0 2.0 0.00 0.00 0.00 93 1015.7
20260906081547 67 131 0.0 0.0 0.00 0.00 0.00 93 1016.0
20260906080049 67 131 0.0 1.0 0.00 0.00 0.00 93 1016.0
20260906074545 67 131 0.0 2.0 0.00 0.00 0.00 93 1016.0
20260906073045 67 131 0.0 2.0 0.00 0.00 0.00 93 1016.0
20260906071556 68 135 0.0 3.0 0.00 0.00 0.00 93 1016.0
20260906070145 68 147 1.0 3.0 0.00 0.00 0.00 93 1015.9
20260906064541 67 134 0.0 3.0 0.00 0.00 0.00 93 1016.0
20260906063039 67 136 0.0 1.0 0.00 0.00 0.00 92 1016.2
20260906061538 67 136 0.0 1.0 0.00 0.00 0.00 92 1016.2
20260906060037 67 136 0.0 0.0 0.00 0.00 0.00 92 1016.2
20260906054537 68 136 0.0 2.0 0.00 0.00 0.00 91 1016.2
20260906053034 68 136 0.0 0.0 0.00 0.00 0.00 92 1016.3
20260906051532 68 136 0.0 0.0 0.00 0.00 0.00 91 1016.3
20260906050031 69 136 0.0 0.0 0.00 0.00 0.00 91 1016.3
20260906044528 69 136 0.0 0.0 0.00 0.00 0.00 91 1016.3
20260906043030 70 136 0.0 0.0 0.00 0.00 0.00 90 1016.3
20260906041527 70 136 0.0 0.0 0.00 0.00 0.00 90 1016.2
20260906040030 71 136 0.0 0.0 0.00 0.00 0.00 90 1016.3
20260906034535 71 136 0.0 0.0 0.00 0.00 0.00 90 1016.3
20260906033028 71 136 0.0 0.0 0.00 0.00 0.00 90 1016.2
20260906031523 71 136 1.0 2.0 0.00 0.00 0.00 90 1016.0
20260906030021 71 144 1.0 3.0 0.00 0.00 0.00 90 1015.9
20260906024520 71 142 0.0 0.0 0.00 0.00 0.00 89 1015.8
20260906023019 71 142 0.0 0.0 0.00 0.00 0.00 89 1015.5
20260906021520 72 142 0.0 2.0 0.00 0.00 0.00 89 1015.1
20260906020018 72 145 0.0 2.0 0.00 0.00 0.00 88 1014.8
20260906014529 72 135 0.0 2.0 0.00 0.00 0.00 88 1014.8
20260906013017 73 135 0.0 2.0 0.00 0.00 0.00 88 1014.6
20260906011531 73 137 0.0 2.0 0.00 0.00 0.00 87 1014.3
20260906010016 74 148 0.0 2.0 0.00 0.00 0.00 85 1014.1
20260906004529 75 150 0.0 1.0 0.00 0.00 0.00 84 1013.8
20260906003020 76 150 0.0 1.0 0.00 0.00 0.00 83 1013.8
20260906001512 76 150 0.0 3.0 0.00 0.00 0.00 83 1013.9
20260906000013 76 148 1.0 3.0 0.00 0.00 0.00 82 1014.0
20260905234511 76 131 1.0 5.0 0.00 0.00 0.00 82 1013.7
20260905233011 77 140 1.0 3.0 0.00 0.00 0.00 81 1013.7
20260905231511 76 110 0.0 2.0 0.00 0.00 0.00 82 1013.4
20260905230015 76 80 0.0 2.0 0.00 0.00 0.00 82 1013.2
20260905224522 76 99 0.0 2.0 0.00 0.00 0.00 81 1013.1
20260905223009 77 85 0.0 3.0 0.00 0.00 0.00 81 1013.1
20260905221508 77 94 0.0 3.0 0.00 0.00 0.00 82 1013.2
20260905220007 77 76 1.0 4.0 0.00 0.00 0.00 81 1013.1
20260905214506 78 72 2.0 6.0 0.00 0.00 0.00 80 1013.3
20260905213006 78 71 1.0 6.0 0.00 0.00 0.00 79 1013.5
20260905211505 79 68 3.0 5.0 0.00 0.00 0.00 78 1013.4
20260905210010 80 78 0.0 3.0 0.00 0.00 0.00 77 1013.6
20260905204503 81 73 1.0 2.0 0.00 0.00 0.00 76 1013.9
20260905203004 82 74 1.0 2.0 0.00 0.00 0.00 74 1014.3
20260905201503 82 79 0.0 3.0 0.00 0.00 0.00 74 1014.3
20260905200002 82 115 0.0 2.0 0.00 0.00 0.00 75 1014.5
20260905194502 82 136 0.0 5.0 0.00 0.00 0.00 74 1014.6
20260905193001 84 47 0.0 4.0 0.00 0.00 0.00 72 1014.7
20260905191600 83 120 1.0 5.0 0.00 0.00 0.00 74 1014.5
20260905190100 82 142 4.0 11.0 0.00 0.00 0.00 74 1014.4
20260905184552 81 182 0.0 2.0 0.00 0.00 0.00 76 1014.8
20260905183055 80 19 0.0 1.0 0.00 0.00 0.00 78 1015.1
20260905181548 79 123 0.0 2.0 0.00 0.00 0.00 79 1015.4
20260905180046 79 190 0.0 3.0 0.00 0.00 0.00 79 1015.3
20260905174543 77 45 0.0 2.0 0.00 0.00 0.00 83 1015.4